Change the Weather History Date:

Monday, November 26, 2012

  Actual Average Record
Temperature  
Mean Temperature 46 °F 43 °F  
Max Temperature 56 °F 51 °F 70 °F (1990)
Min Temperature 36 °F 35 °F 15 °F (1977)
Degree Days  
Heating Degree Days 19 22  
Month to date heating degree days 555 449  
Since 1 July heating degree days 977 813  
Cooling Degree Days 0 0  
Month to date cooling degree days 0 0  
Year to date cooling degree days 1007 851  
Moisture  
Dew Point 21 °F    
Average Humidity 44    
Maximum Humidity 62    
Minimum Humidity 26    
Precipitation  
Precipitation T in 0.10 in 1.83 in (2013)
Month to date precipitation 0.53 2.31  
Year to date precipitation 40.37 36.34  
Snow  
Snow 0.00 in - - ()
Month to date snowfall T  
Since 1 July snowfall 9.6  
Since 1 September snowfall 9.6  
Snow Depth 0.00 in    
Sea Level Pressure  
Sea Level Pressure 30.12 in    
Wind  
Wind Speed 6 mph (West)    
Max Wind Speed 15 mph    
Max Gust Speed 21 mph    
Visibility 10 miles    
Events Rain    
T = Trace of Precipitation, MM = Missing Value Source: NWS Daily Summary

Daily Weather History Graph

Daily Weather History Graph

Search for Another Location

Airport or City:

Trip Planner

Search our weather history database for the weather conditions in past years. The results will help you decide how hot, cold, wet, or windy it might be!

Date:

Astronomy

Nov. 26, 2012 Rise Set
Actual Time 7:15 AM EST 5:08 PM EST
Civil Twilight 6:47 AM EST 5:37 PM EST
Nautical Twilight 6:15 AM EST 6:09 PM EST
Astronomical Twilight 5:43 AM EST 6:40 PM EST
Moon 3:58 PM EST 5:26 AM EST
Length of Visible Light 10h 49m
Length of Day
9h 52m
Waxing Gibbous, 97% of the Moon is Illuminated
Nov 26
Waxing Gibbous
Nov 28
Full
Dec 6
Last Quarter
Dec 13
New
Dec 20
First Quarter

Hourly Weather History & Observations

Time (EST) Temp. Windchill Dew Point Humidity Pressure Visibility Wind Dir Wind Speed Gust Speed Precip Events Conditions
12:52 AM 39.0 °F 34.8 °F 14.0 °F 36% 30.05 in 10.0 mi West 5.8 mph - N/A   Clear
1:52 AM 39.0 °F 34.8 °F 14.0 °F 36% 30.06 in 10.0 mi West 5.8 mph - N/A   Clear
2:52 AM 37.9 °F 33.5 °F 15.1 °F 39% 30.08 in 10.0 mi WSW 5.8 mph - N/A   Clear
3:52 AM 37.9 °F 33.5 °F 15.1 °F 39% 30.08 in 10.0 mi WSW 5.8 mph - N/A   Clear
4:52 AM 37.0 °F 33.3 °F 15.1 °F 41% 30.10 in 10.0 mi West 4.6 mph - N/A   Clear
5:52 AM 37.0 °F 31.0 °F 16.0 °F 42% 30.12 in 10.0 mi West 8.1 mph - N/A   Clear
6:52 AM 37.0 °F 31.6 °F 15.1 °F 41% 30.13 in 10.0 mi West 6.9 mph - N/A   Clear
7:52 AM 37.0 °F 31.6 °F 17.1 °F 44% 30.15 in 10.0 mi West 6.9 mph - N/A   Clear
8:52 AM 42.1 °F 36.1 °F 17.1 °F 37% 30.16 in 10.0 mi West 10.4 mph - N/A   Clear
9:52 AM 46.0 °F 41.4 °F 19.0 °F 34% 30.16 in 10.0 mi West 9.2 mph 20.7 mph N/A   Mostly Cloudy
10:52 AM 48.9 °F - 19.9 °F 32% 30.17 in 10.0 mi West 12.7 mph 19.6 mph N/A   Clear
11:52 AM 52.0 °F - 19.9 °F 28% 30.15 in 10.0 mi West 6.9 mph 17.3 mph N/A   Mostly Cloudy
12:52 PM 53.1 °F - 19.9 °F 27% 30.14 in 10.0 mi West 13.8 mph 17.3 mph N/A   Clear
1:52 PM 53.1 °F - 21.9 °F 30% 30.12 in 10.0 mi WNW 8.1 mph 17.3 mph N/A   Mostly Cloudy
2:52 PM 54.0 °F - 19.9 °F 26% 30.11 in 10.0 mi West 9.2 mph - N/A   Overcast
3:52 PM 52.0 °F - 21.0 °F 30% 30.12 in 10.0 mi WSW 8.1 mph - N/A   Overcast
4:52 PM 50.0 °F - 23.0 °F 35% 30.13 in 10.0 mi NW 4.6 mph - N/A   Overcast
5:52 PM 48.0 °F - 26.1 °F 42% 30.12 in 10.0 mi Calm Calm - 0.00 in   Overcast
6:52 PM 48.0 °F - 28.0 °F 46% 30.14 in 10.0 mi Calm Calm - N/A   Overcast
7:52 PM 48.9 °F - 23.0 °F 36% 30.15 in 10.0 mi East 3.5 mph - 0.00 in Rain Light Rain
8:52 PM 46.9 °F - 28.9 °F 50% 30.15 in 10.0 mi NNW 5.8 mph - 0.00 in   Overcast
9:52 PM 45.0 °F - 28.9 °F 53% 30.14 in 10.0 mi Calm Calm - 0.00 in   Overcast
10:52 PM 43.0 °F - 30.0 °F 60% 30.14 in 10.0 mi Calm Calm - 0.00 in   Overcast
11:52 PM 44.1 °F - 30.0 °F 58% 30.12 in 10.0 mi Calm Calm - 0.00 in Rain Light Rain